Regional Weather Roundup
Issued by NWS

Home | Current Version | Previous Version | Text Only | Print | Product List | Glossary On
Versions: 1 2 3 4 5 6 7 8 9 10 11 12 13 14 15 16 17 18 19 20 21 22 23 24 25 26 27 28 29 30 31 32 33 34 35 36 37 38 39 40 41 42 43 44 45 46 47 48 49 50
000
ASUS43 KOAX 200502
RWRNE

WEATHER ROUNDUP FOR NEBRASKA
NATIONAL WEATHER SERVICE OMAHA NE
1100 PM CST SUN FEB 19 2017

NOTES: SATELLITE DATA IS BEING USED TO AUGMENT CLOUD COVER ABOVE
       12000 FEET.
       "FAIR" INDICATES FEW OR NO CLOUDS BELOW 12,000 FEET WITH NO
       SIGNIFICANT WEATHER AND/OR OBSTRUCTIONS TO VISIBILITY.

  * THESE STATIONS DO NOT REPORT WEATHER SUCH AS RAIN...SNOW OR FOG.

NEZ001>004-019>022-054>056-200600-
NEBRASKA PANHANDLE

CITY           SKY/WX    TMP DP  RH WIND       PRES   REMARKS
SCOTTSBLUFF    CLOUDY    50  35  56 W12       29.64R
ALLIANCE       PTCLDY    42  34  73 SW8       29.61R
CHADRON        CLOUDY    50  36  58 SW5       29.60R
KIMBALL        CLOUDY    47  38  70 NW14      29.66S
SIDNEY         CLOUDY    49  33  54 NW12      29.64R
$$

NEZ057>060-069>072-079>082-200600-
SOUTHWEST NEBRASKA

CITY           SKY/WX    TMP DP  RH WIND       PRES   REMARKS
NORTH PLATTE   CLOUDY    57  49  74 SE12      29.63R
IMPERIAL       PTCLDY    54  31  41 S5        29.64R
LEXINGTON      MOCLDY    55  51  86 S18G25    29.69F
MCCOOK         CLOUDY    56  50  80 S14       29.67R
OGALLALA       MOCLDY    53  34  48 CALM      29.64F
$$

NEZ005>010-023>029-035>040-094-200600-
NORTH CENTRAL NEBRASKA

CITY           SKY/WX    TMP DP  RH WIND       PRES   REMARKS
VALENTINE      PTCLDY    58  44  60 S16       29.60R
AINSWORTH      CLOUDY    56  48  74 S20       29.60F
BROKEN BOW     CLOUDY    56  52  86 S22G29    29.67F
O`NEILL        MOCLDY    55  50  82 S16G22    29.69S
ORD            PTCLDY    54  49  83 S15       29.71S
THEDFORD       CLOUDY    58  49  72 S15       29.66R
$$

NEZ041-046>049-061>064-073>077-083>087-200600-
SOUTH CENTRAL NEBRASKA

CITY           SKY/WX    TMP DP  RH WIND       PRES   REMARKS
GRAND ISLAND   PTCLDY    54  52  93 S16G23    29.76S
AURORA         CLOUDY    54  51  91 S15       29.77F
HASTINGS       CLOUDY    55  51  86 S12       29.77F
HEBRON         PTCLDY    55  52  88 SE12G18   29.78F
HOLDREGE       CLOUDY    55  51  89 SE17G23   29.72F
KEARNEY *      CLOUDY    55  52  88 S20G28    29.74F
YORK           MOCLDY    54  50  87 S12       29.78F
$$

NEZ011>018-030>034-042>045-200600-
NORTHEAST NEBRASKA

CITY           SKY/WX    TMP DP  RH WIND       PRES   REMARKS
NORFOLK        CLOUDY    55  49  80 S21G28    29.75S
ALBION         PTCLDY    55  50  83 S15       29.75F
BLAIR          CLOUDY    57  53  85 S16       29.82F
FREMONT        CLOUDY    55  51  86 SE10G16   29.81F
TEKAMAH        MOCLDY    55  51  86 S13       29.82S
WAYNE          MOCLDY    53  51  91 S17       29.76F
$$

NEZ050>053-065>068-078-088>093-200600-
SOUTHEAST NEBRASKA

CITY           SKY/WX    TMP DP  RH WIND       PRES   REMARKS
LINCOLN        PTCLDY    56  53  90 S9        29.81F
OMAHA EPPLEY   CLOUDY    59  52  77 S15       29.83F
BEATRICE       PTCLDY    58  54  86 S10       29.80F
FALLS CITY     CLOUDY    55  52  89 CALM      29.85F
NEBRASKA CITY  PTCLDY    55  51  86 S9        29.85F
PLATTSMOUTH    CLOUDY    57  51  79 S10       29.84F
$$

NEZ044-045-051>053-067-200600-
OMAHA AREA

CITY           SKY/WX    TMP DP  RH WIND       PRES   REMARKS
OMAHA EPPLEY   CLOUDY    59  52  77 S15       29.83F
BLAIR          CLOUDY    57  53  85 S16       29.82F
FREMONT        CLOUDY    55  51  86 SE10G16   29.81F
MILLARD        CLOUDY    59  54  84 SE6       29.83F
OFFUTT AFB     CLOUDY    57  57 100 S7        29.83F
PLATTSMOUTH    CLOUDY    57  51  79 S10       29.84F
WAHOO          FAIR      53  50  90 S12       29.81F
$$




USA.gov is the U.S. government's official web portal to all federal, state and local government web resources and services.